Location: Famechon
(49.7599°N, 2.0615°E)
Time: 11:49:27
(UTC+00:00)

Spot 1 - Pass Details

Date: 03 February 2023
Orbit: 575 x 772 km, 98.8° (Epoch: 24 March)

Event Time Altitude Azimuth Distance (km) Brightness Sun altitude
Exits shadow 18:48:40 44° 118° (ESE) 802 4.2 -19.4°
Drops below altitude 10° 18:52:11 10° 175° (S) 1,881 6.5 -19.9°
Sets 18:54:23 0° 181° (S) 2,781 7.5 -20.3°
